ARIANE 2 DEB, 27650

Orbit data source: Space-Track

ARIANE 2 DEB, 27650 is space debris in HEO originally from a launch on Fri, 27 Jan 1989 UTC launched from the French Guiana (FRGUI). Debris objects in space refer to the collection of defunct objects orbiting the Earth. Examples of debris include non-operational satellites, rocket bodies, and fragments generated from explosions, collisions, or faulty payload assembly.

Loading next visibility...
Identifier
27650, 1989-006AE
Orbit
HEO
Country
Flag of FRFR
Related business
Manufacturer
EADS/LV
Mission
Spacecraft
Bus & Motor
Unknown
Mass
Unknown
Launch date (UTC)
1989-01-27 (37 years ago)
Launch vehicle
Unknown
Launch site
French Guiana (FRGUI)
Object type
Payload
Rocket body
Debris
Shape & HBR
Unknown shape, 0.3 m
Radar Cross Section
Medium (>0.1 m² and <1 m²)

Expand to show TLE details & history
Last TLE update: 1 day ago

TLE from 1 day ago
0 ARIANE 2 DEB
1 27650U 89006AE  25291.55292200  .00001503  00000-0  26429-2 0  9991
2 27650   8.7376 353.4908 7197569 235.8414  34.5121  2.32973865202483
Epoch: 2025-10-18T13:16Z
TLE epoch observation values (Epoch: 2025-10-18T13:16:12.460Z)
Latitude
0.00001°
Longitude
126.99425°
Altitude
13,007.992 km
Speed
4.953 km/s
True Right ascension
23h 33m 18s
True Declination
0° 00' 00"
Sunlit
Object was in daylight at epoch
Visualization orbit readout
Latitude
Unknown
Longitude
Unknown
Altitude
Unknown
Speed
Unknown
Apparent Right ascension
Unknown
Apparent Declination
Unknown
Sunlit
N/A
Visualization observer readout
Local Sidereal Time
10:19:46
Azimuth
Unknown
Elevation
Unknown
Doppler factor
Unknown
Orbital elements
Apogee altitude
34,967.202 km
Perigee altitude
359.296 km
Semi-major axis
24,041.386 km
Eccentricity
0.71976
Inclination
8.7376°
RAAN
353.4908°
Arg. of periapsis
235.8414°
True anomaly
123.8098°
Mean anomaly
34.5121°
Eccentric anomaly
74.19134°
Mean motion
0.58224 °/min
Orbital period
618.3 mins
BSTAR
0.0026429
Loading maneuver chart data...
Computing Atmospheric mass density...
Loading historical data...
Loading historical data...
Loading historical data...
Loading historical data...
Loading historical data...
Loading historical data...
Loading historical data...

Documentation

Showing up to 5 results
|